When you browse on this site, cookies collect data to enhance your experience and personalize the content and advertising you see.
Visit our Privacy Policy to learn more. By continuing to use the site, you agree to this use of cookies and data.
  • In United Kingdom
  • List of Countries
  • For 7 days
  • Water Temperature
  • Weather Map
  • Weather Widgets
  • user-avatar
    Login

    Hourly Weather Leipzig

    Today, 9 December, Monday

    Time Temperature Precipitation Wind Pressure Humidity
    00:00 +8°C° 0.1 mm 5 mps 739 mmHg 75%
    01:00 +7°C° 0 mm 4 mps 739 mmHg 81%
    02:00 +7°C° 0 mm 5 mps 739 mmHg 79%
    03:00 +7°C° 0 mm 6 mps 739 mmHg 77%
    04:00 +5°C° 0 mm 7 mps 739 mmHg 74%
    05:00 +5°C° 0 mm 6 mps 739 mmHg 76%
    06:00 +4°C° 0 mm 6 mps 739 mmHg 77%
    07:00 +5°C° 0 mm 4 mps 740 mmHg 80%
    08:00 +5°C° 0 mm 5 mps 740 mmHg 77%
    09:00 +6°C° 0 mm 5 mps 740 mmHg 74%
    10:00 +6°C° 0 mm 5 mps 739 mmHg 70%
    11:00 +7°C° 0 mm 6 mps 739 mmHg 67%
    12:00 +8°C° 0 mm 6 mps 739 mmHg 64%
    13:00 +8°C° 0 mm 6 mps 739 mmHg 61%
    14:00 +8°C° 0 mm 6 mps 739 mmHg 65%
    15:00 +7°C° 0 mm 5 mps 739 mmHg 69%
    16:00 +6°C° 0 mm 5 mps 739 mmHg 72%
    17:00 +6°C° 0 mm 5 mps 740 mmHg 74%
    18:00 +5°C° 0 mm 6 mps 741 mmHg 75%
    19:00 +5°C° 0 mm 6 mps 742 mmHg 77%
    20:00 +4°C° 0.1 mm 6 mps 743 mmHg 79%
    21:00 +4°C° 0.1 mm 6 mps 744 mmHg 81%
    22:00 +4°C° 0.1 mm 6 mps 744 mmHg 83%
    23:00 +3°C° 0.2 mm 6 mps 746 mmHg 80%

    Tomorrow, 10 December, Tuesday

    Time Temperature Precipitation Wind Pressure Humidity
    00:00 +3°C° 0.2 mm 6 mps 747 mmHg 77%
    01:00 +2°C° 0.2 mm 6 mps 748 mmHg 74%
    02:00 +2°C° 0 mm 6 mps 749 mmHg 76%
    03:00 +1°C° 0 mm 6 mps 750 mmHg 77%
    04:00 +1°C° 0 mm 5 mps 751 mmHg 78%
    05:00 0°C° 0 mm 5 mps 752 mmHg 80%
    06:00 0°C° 0 mm 5 mps 753 mmHg 82%
    07:00 0°C° 0 mm 5 mps 754 mmHg 83%
    08:00 0°C° 0 mm 5 mps 755 mmHg 82%
    09:00 +1°C° 0 mm 5 mps 756 mmHg 80%
    10:00 +1°C° 0 mm 5 mps 756 mmHg 78%
    11:00 +2°C° 0 mm 5 mps 757 mmHg 75%
    12:00 +3°C° 0 mm 4 mps 757 mmHg 71%
    13:00 +4°C° 0 mm 4 mps 757 mmHg 68%
    14:00 +3°C° 0 mm 3 mps 757 mmHg 72%
    15:00 +2°C° 0 mm 3 mps 757 mmHg 75%
    16:00 +3°C° 0 mm 2 mps 757 mmHg 79%
    17:00 +1°C° 0 mm 3 mps 757 mmHg 81%
    18:00 +1°C° 0 mm 3 mps 757 mmHg 83%
    19:00 0°C° 0 mm 3 mps 757 mmHg 85%
    20:00 0°C° 0 mm 3 mps 756 mmHg 84%
    21:00 -1°C° 0 mm 4 mps 756 mmHg 83%
    22:00 -1°C° 0 mm 4 mps 755 mmHg 82%
    23:00 -1°C° 0 mm 4 mps 755 mmHg 80%

    Day after tomorrow, 11 December, Wednesday

    Time Temperature Precipitation Wind Pressure Humidity
    00:00 -1°C° 0 mm 4 mps 754 mmHg 78%
    01:00 -1°C° 0 mm 5 mps 754 mmHg 75%
    02:00 -1°C° 0 mm 5 mps 753 mmHg 73%
    03:00 -1°C° 0 mm 5 mps 752 mmHg 72%
    04:00 -1°C° 0 mm 5 mps 751 mmHg 70%
    05:00 -1°C° 0 mm 5 mps 750 mmHg 67%
    06:00 -1°C° 0 mm 5 mps 750 mmHg 65%
    07:00 0°C° 0 mm 4 mps 750 mmHg 62%
    08:00 0°C° 0 mm 5 mps 749 mmHg 60%
    09:00 +1°C° 0 mm 5 mps 749 mmHg 57%
    10:00 +1°C° 0 mm 5 mps 748 mmHg 55%
    11:00 +2°C° 0.2 mm 5 mps 748 mmHg 55%
    12:00 +2°C° 0.2 mm 5 mps 747 mmHg 55%
    13:00 +3°C° 0.2 mm 4 mps 747 mmHg 56%
    14:00 +3°C° 0.5 mm 4 mps 746 mmHg 62%
    15:00 +1°C° 0.5 mm 4 mps 746 mmHg 67%
    16:00 +1°C° 0.5 mm 4 mps 745 mmHg 73%
    17:00 +1°C° 0.6 mm 4 mps 745 mmHg 75%
    18:00 +1°C° 0.6 mm 4 mps 745 mmHg 77%
    19:00 +1°C° 0.6 mm 4 mps 745 mmHg 78%
    20:00 +1°C° 0.5 mm 4 mps 745 mmHg 82%
    21:00 +1°C° 0.5 mm 4 mps 744 mmHg 86%
    22:00 +2°C° 0.5 mm 3 mps 744 mmHg 90%
    23:00 +2°C° 0.4 mm 3 mps 744 mmHg 90%

    12 December, Thursday

    Time Temperature Precipitation Wind Pressure Humidity
    00:00 +3°C° 0.4 mm 3 mps 744 mmHg 91%
    01:00 +3°C° 0.4 mm 3 mps 744 mmHg 91%
    02:00 +3°C° 0.1 mm 3 mps 743 mmHg 91%
    03:00 +3°C° 0.1 mm 3 mps 743 mmHg 91%
    04:00 +3°C° 0.1 mm 3 mps 743 mmHg 91%
    05:00 +2°C° 0 mm 3 mps 743 mmHg 91%
    06:00 +2°C° 0 mm 3 mps 743 mmHg 90%
    07:00 +2°C° 0 mm 3 mps 744 mmHg 90%
    08:00 +2°C° 0 mm 3 mps 744 mmHg 89%
    09:00 +2°C° 0 mm 3 mps 744 mmHg 87%
    10:00 +2°C° 0 mm 3 mps 744 mmHg 86%
    11:00 +3°C° 0 mm 3 mps 744 mmHg 83%
    12:00 +3°C° 0 mm 4 mps 743 mmHg 81%
    13:00 +4°C° 0 mm 4 mps 743 mmHg 78%
    14:00 +4°C° 0 mm 3 mps 743 mmHg 80%
    15:00 +3°C° 0 mm 3 mps 743 mmHg 81%
    16:00 +3°C° 0 mm 3 mps 742 mmHg 83%
    17:00 +3°C° 0 mm 3 mps 742 mmHg 82%
    18:00 +3°C° 0 mm 3 mps 741 mmHg 81%
    19:00 +2°C° 0 mm 3 mps 741 mmHg 80%
    20:00 +1°C° 0 mm 4 mps 740 mmHg 82%
    21:00 +1°C° 0 mm 4 mps 739 mmHg 83%
    22:00 0°C° 0 mm 5 mps 738 mmHg 85%
    23:00 0°C° 0 mm 5 mps 737 mmHg 83%

    13 December, Friday

    Time Temperature Precipitation Wind Pressure Humidity
    00:00 -1°C° 0 mm 5 mps 736 mmHg 80%
    01:00 -1°C° 0 mm 5 mps 734 mmHg 78%
    02:00 -2°C° 0 mm 6 mps 733 mmHg 75%
    03:00 -2°C° 0 mm 6 mps 731 mmHg 72%
    04:00 -2°C° 0 mm 6 mps 729 mmHg 69%
    05:00 -1°C° 0.2 mm 6 mps 728 mmHg 69%
    06:00 -1°C° 0.2 mm 6 mps 727 mmHg 69%
    07:00 -1°C° 0.2 mm 6 mps 726 mmHg 70%
    08:00 0°C° 0.3 mm 7 mps 725 mmHg 71%
    09:00 0°C° 0.3 mm 8 mps 725 mmHg 72%
    10:00 +1°C° 0.3 mm 8 mps 724 mmHg 73%
    11:00 +1°C° 0 mm 8 mps 724 mmHg 74%
    12:00 +3°C° 0 mm 7 mps 725 mmHg 76%
    13:00 +3°C° 0 mm 7 mps 725 mmHg 78%
    14:00 +3°C° 0 mm 6 mps 725 mmHg 77%
    15:00 +2°C° 0 mm 6 mps 725 mmHg 76%
    16:00 +2°C° 0 mm 6 mps 725 mmHg 75%
    17:00 +2°C° 0 mm 7 mps 725 mmHg 76%
    18:00 +1°C° 0 mm 8 mps 724 mmHg 77%
    19:00 +2°C° 0 mm 8 mps 724 mmHg 78%
    20:00 +2°C° 0 mm 8 mps 724 mmHg 78%
    21:00 +2°C° 0 mm 9 mps 725 mmHg 79%
    22:00 +2°C° 0 mm 9 mps 725 mmHg 79%
    23:00 +2°C° 0 mm 8 mps 725 mmHg 79%

    14 December, Saturday

    Time Temperature Precipitation Wind Pressure Humidity
    00:00 +4°C° 0 mm 8 mps 726 mmHg 78%
    01:00 +4°C° 0 mm 8 mps 727 mmHg 77%
    02:00 +2°C° 0 mm 8 mps 727 mmHg 78%
    03:00 +3°C° 0 mm 7 mps 728 mmHg 78%
    04:00 +2°C° 0 mm 7 mps 729 mmHg 78%
    05:00 +2°C° 0 mm 6 mps 729 mmHg 77%
    06:00 +2°C° 0 mm 6 mps 729 mmHg 76%
    07:00 +2°C° 0 mm 6 mps 730 mmHg 74%
    08:00 +2°C° 0 mm 6 mps 730 mmHg 75%
    09:00 +2°C° 0 mm 7 mps 730 mmHg 76%
    10:00 +2°C° 0 mm 7 mps 731 mmHg 77%
    11:00 +3°C° 0.1 mm 7 mps 731 mmHg 75%
    12:00 +3°C° 0.1 mm 7 mps 731 mmHg 73%
    13:00 +3°C° 0.1 mm 7 mps 731 mmHg 71%
    14:00 +3°C° 0 mm 7 mps 732 mmHg 70%
    15:00 +3°C° 0 mm 6 mps 732 mmHg 70%
    16:00 +2°C° 0 mm 5 mps 733 mmHg 69%
    17:00 +2°C° 0 mm 5 mps 733 mmHg 71%
    18:00 +2°C° 0 mm 5 mps 734 mmHg 73%
    19:00 +2°C° 0 mm 5 mps 734 mmHg 75%
    20:00 +2°C° 0.2 mm 5 mps 735 mmHg 78%
    21:00 +2°C° 0.2 mm 6 mps 736 mmHg 80%
    22:00 +3°C° 0.2 mm 7 mps 736 mmHg 83%
    23:00 +2°C° 0.1 mm 7 mps 737 mmHg 80%
    Show more